Location: Lafig�re
(44.4503°N, 4.0357°E)
Time: 15:45:12
(UTC+00:00)

Vanguard 2 Rocket - Pass Details

Date: 25 January 2021
Orbit: 554 x 3325 km, 32.9° (Epoch: 06 March)

Event Time Altitude Azimuth Distance (km) Brightness Sun altitude
Rises 19:09:21 0° 267° (W) 4,763 11.9 -25.9°
Reaches altitude 10° 19:14:07 10° 252° (WSW) 3,226 10.6 -26.8°
Maximum altitude 19:18:57 18° 212° (SSW) 2,146 9.1 -27.6°
Enters shadow 19:21:40 13° 178° (S) 2,175 8.8 -28.1°
Drops below altitude 10° 19:22:35 10° 168° (SSE) 2,315 - -28.3°
Sets 19:25:18 0° 148° (SSE) 3,001 - -28.8°
